COSMOS 886 DEB, 14799

Orbit data source: Space-Track

COSMOS 886 DEB, 14799 is space debris in LEO originally from a launch on Mon, 27 Dec 1976 UTC launched from the Tyuratam Missile And Space Complex (TTMTR). Debris objects in space refer to the collection of defunct objects orbiting the Earth. Examples of debris include non-operational satellites, rocket bodies, and fragments generated from explosions, collisions, or faulty payload assembly.

Loading next visibility...
Identifier
14799, 1976-126BR
Orbit
LEO
Country
Flag of CISCIS
Related business
Manufacturer
Unknown
Mission
Spacecraft
Bus & Motor
Unknown
Mass
Unknown
Launch date (UTC)
1976-12-27 (49 years ago)
Launch vehicle
Unknown
Launch site
Tyuratam Missile And Space Complex (TTMTR)
Object type
Payload
Rocket body
Debris
Shape & HBR
Unknown shape, 0.1 m
Radar Cross Section
Medium (>0.1 m² and <1 m²)

Expand to show TLE details & history
Last TLE update: 1 day ago

TLE from 1 day ago
0 COSMOS 886 DEB
1 14799U 76126BR  26174.67456736 -.00000292  00000-0 -16325-2 0  9990
2 14799  65.8090 249.3865 0877064  41.6325 104.7372 11.69557255820853
Epoch: 2026-06-23T16:11Z
TLE epoch observation values (Epoch: 2026-06-23T16:11:22.619Z)
Latitude
21.99613°
Longitude
-95.70735°
Altitude
2,061.491 km
Speed
6.774 km/s
True Right ascension
03h 55m 55s
True Declination
21° 53' 43"
Sunlit
Object was in daylight at epoch
Visualization orbit readout
Latitude
Unknown
Longitude
Unknown
Altitude
Unknown
Speed
Unknown
Apparent Right ascension
Unknown
Apparent Declination
Unknown
Sunlit
N/A
Visualization observer readout
Local Sidereal Time
04:41:41
Azimuth
Unknown
Elevation
Unknown
Doppler factor
Unknown
Orbital elements
Apogee altitude
2,537.685 km
Perigee altitude
1,099.843 km
Semi-major axis
8,196.901 km
Eccentricity
0.08771
Inclination
65.809°
RAAN
249.3865°
Arg. of periapsis
41.6325°
True anomaly
114.15062°
Mean anomaly
104.7372°
Eccentric anomaly
109.4749°
Mean motion
2.92461 °/min
Orbital period
123.09 mins
BSTAR
-0.0016325
Loading maneuver chart data...
Computing Atmospheric mass density...
Loading historical data...
Loading historical data...
Loading historical data...
Loading historical data...
Loading historical data...
Loading historical data...
Loading historical data...

Documentation

Showing up to 5 results
|